Regional Weather Roundup
Issued by NWS

Home | Current Version | Previous Version | Text Only | Print | Product List | Glossary On
Versions: 1 2 3 4 5 6 7 8 9 10 11 12 13 14 15 16 17 18 19 20 21 22 23 24 25 26 27 28 29 30 31 32 33 34 35 36 37 38 39 40 41 42 43 44 45 46 47 48 49 50
983
ASUS46 KLOX 101613
RWRCA

SOUTHERN CALIFORNIA WEATHER ROUNDUP
NATIONAL WEATHER SERVICE OXNARD CALIFORNIA
800 AM PST WED FEB 10 2016

NOTE: "FAIR" INDICATES FEW OR NO CLOUDS BELOW 12,000 FEET WITH NO
SIGNIFICANT WEATHER AND/OR OBSTRUCTIONS TO VISIBILITY.

  -  STATIONS PRECEEDED BY AN ASTERISK (*) ARE NOT NWS OR FAA
     STATIONS AND ARE NOT SUBJECT TO NWS AND FAA QUALITY CONTROL.

CAZ041-042-087-101700-
LA AND ORANGE COUNTY COASTAL AREAS


CITY           SKY/WX    TMP DP  RH WIND       PRES   REMARKS
L.A. DOWNTOWN  SUNNY     64  29  26 VRB3      30.14R
L.A. AIRPORT   MOSUNNY   65  30  27 NE3       30.13R
LONG BEACH     MOSUNNY   59  38  45 CALM      30.13R

CITY           SKY/WX    TMP DP  RH WIND       PRES   REMARKS
FULLERTON      MOSUNNY   58  36  43 E3        30.13R
HAWTHORNE      SUNNY     67  27  22 CALM      30.14R
*REDONDO BEACH   N/A     58  33  39 CALM      30.14R
SANTA ANA      PTSUNNY   58  39  49 CALM      30.13R
STA MONICA APT SUNNY     66  29  24 N6        30.13R
*UCLA            N/A     70  23  17 N12       30.12R

$$

CAZ547-548-048-101700-
LA COUNTY VALLEYS AND INLAND EMPIRE


CITY           SKY/WX    TMP DP  RH WIND       PRES   REMARKS
BURBANK        SUNNY     57  29  34 CALM      30.15R
VAN NUYS       MOSUNNY   55  33  43 CALM      30.16R

CITY           SKY/WX    TMP DP  RH WIND       PRES   REMARKS
CORONA AIRPORT MOSUNNY   50  38  63 CALM      30.19R
*CHATSWORTH      N/A     60  34  37 CALM      30.16S
CHINO          PTSUNNY   53  42  66 CALM      30.19R
MARCH AFB      MOSUNNY   51  34  51 CALM      30.20R
ONTARIO        PTSUNNY   61  32  33 NE3       30.18R
*PASADENA        N/A     63  34  34 CALM        N/A
POMONA         SUNNY     55  32  41 CALM      30.20R
RIVERSIDE      PTSUNNY   59  28  30 NE5       30.19R
SAN BERNARDINO MOSUNNY   50  30  46 CALM      30.19R
*SAN GABRIEL     N/A     60  36  41 N1        30.22R
*WHITEMAN AP   SUNNY     59  27  29 CALM      30.20
*WHITTIER HILL   N/A     70  22  16 E13         N/A
*WOODLAND HILL   N/A     55  34  44 NW1         N/A

$$

CAZ054-055-101700-
LA AND SAN BERNARDINO COUNTY MOUNTAINS


CITY           SKY/WX    TMP DP  RH WIND       PRES   REMARKS
*BIG BEAR AIRP SUNNY     27  21  80 CALM      30.46R
*CHILAO          N/A     63   3   9 CALM        N/A
SANDBERG       SUNNY    N/A N/A N/A NE10      30.35R
*WARM SPRINGS    N/A     64  47  54 NE21        N/A

$$

CAZ028-029-059-060-099-101700-
ANTELOPE VALLEY AND SURROUNDING AREAS


CITY           SKY/WX    TMP DP  RH WIND       PRES   REMARKS
LANCASTER      SUNNY     36  27  69 CALM      30.33R
PALMDALE       SUNNY     40  29  64 CALM      30.31R

CITY           SKY/WX    TMP DP  RH WIND       PRES   REMARKS
29 PALMS       PTSUNNY   48  19  31 NW5       30.36R
BARSTOW/DAGGET MOSUNNY   49  24  37 W9        30.30R
BISHOP         SUNNY     39  25  57 NW5       30.38R
CHINA LAKE     MOSUNNY   41  26  55 NW3       30.32R
MOJAVE         SUNNY     45  28  53 CALM      30.31R HAZE
NEEDLES        SUNNY     63  28  26 N6        30.27R
VICTORVILLE    MOSUNNY   45  25  45 S6        30.31R

$$

CAZ039-040-101700-
VENTURA AND SANTA BARBARA COUNTY COAST


CITY           SKY/WX    TMP DP  RH WIND       PRES   REMARKS
CAMARILLO      SUNNY     58  35  42 NW3       30.14R
NWS OXNARD       N/A     64  29  27 N5        30.13R
OXNARD AIRPORT SUNNY     66  28  24 NE10      30.14R
*POINT MUGU    MOSUNNY   60  36  40 VRB6      30.15R
SBA APT/GOLETA SUNNY     51  43  74 CALM      30.14R
*SANTA BARBARA   N/A     58  38  48 CALM      30.22R
*VENTURA         N/A     68  27  21 N10       30.14R

$$

CAZ044-045-101700-
VENTURA COUNTY VALLEYS


CITY           SKY/WX    TMP DP  RH WIND       PRES   REMARKS
*SIMI VALLEY     N/A     72  29  20 NE14      30.09R
*WESTLAKE VILL   N/A     45  36  71 CALM      30.16R
*OJAI            N/A     53  42  66 CALM      30.15R
*FILLMORE        N/A     59  37  43 CALM      30.07R

$$

CAZ053-101700-
VENTURA COUNTY MOUNTAINS


CITY           SKY/WX    TMP DP  RH WIND       PRES   REMARKS
*LOCKWOOD VLY    N/A     32  18  55 MISG        N/A
*ROSE VALLEY     N/A     25  25 100 MISG        N/A

$$

CAZ034-035-036-101700-
CENTRAL COAST AND SANTA YNEZ VALLEY


CITY           SKY/WX    TMP DP  RH WIND       PRES   REMARKS
SAN LUIS OBISP SUNNY     50  43  77 VRB3      30.18S
SANTA MARIA    SUNNY     52  44  74 CALM      30.19R

CITY           SKY/WX    TMP DP  RH WIND       PRES   REMARKS
*CAL POLY SLO    N/A     48  45  87 E2G12       N/A
*PISMO BEACH     N/A     53  44  69 E2        30.17F
*SANTA YNEZ    FAIR      46  37  71 CALM      30.19S

$$

CAZ037-038-051-101700-
SAN LUIS OBISPO COUNTY INTERIOR AND CUYAMA VALLEY


CITY           SKY/WX    TMP DP  RH WIND       PRES   REMARKS
*CUYAMA          N/A     46  35  66 E5        30.23R
PASO ROBLES    SUNNY     41  39  93 CALM      30.25R

$$

CAZ032-033-061-101700-
SOUTHERN DESERTS


CITY           SKY/WX    TMP DP  RH WIND       PRES   REMARKS
BLYTHE         SUNNY     58  26  29 W6        30.23R
IMPERIAL       SUNNY     57  32  38 CALM      30.18R
PALM SPRINGS   MOSUNNY   62  28  27 NW6       30.21R
THERMAL        SUNNY     58  34  40 CALM      30.17R

$$

ELSEWHERE ACROSS THE WESTERN UNITED STATES AND MEXICO


CITY           SKY/WX    TMP DP  RH WIND       PRES   REMARKS
DEATH VALLEY,    N/A     55  30  38 CALM        N/A
DENVER, CO     CLOUDY    50  16  25 SW13      30.18S
GRAND CANYON,  SUNNY     39  22  50 CALM      30.47R
HONOLULU, HI   CLEAR     63  57  82 CALM      30.07R
KAHULUI, MAUI  CLEAR     57  54  88 SE7       30.09R
LAKE TAHOE, CA SUNNY     21  18  88 S6        30.45R WCI  13
LAS VEGAS, NV  MOSUNNY   53  28  38 CALM      30.30R
MAMMOTH LAKES, FAIR      28  21  74 N5        30.47R WCI  23
MEXICO CITY, M CLOUDY    48  36  61 W7        30.52R
PHOENIX, AZ    MOSUNNY   66  25  21 E7        30.22R
PORTLAND, OR   CLOUDY    47  38  71 SE14      30.21R
RENO, NV       MOSUNNY   34  29  82 SW3       30.42R
SALT LAKE CITY FOG       29  28  96 CALM      30.48R VSB 1/2
SAN DIEGO, CA  PTSUNNY   62  33  33 CALM      30.14S
SAN FRANCISCO, MOCLDY    52  47  83 S6        30.26R
SAN JOSE, CA   MOCLDY    50  43  77 CALM      30.27R
SEATTLE, WA    CLOUDY    47  42  83 S3        30.12R
TIJUANA, MEX   SUNNY     64  27  24 SE6       30.17R

$$

STATION/POSITION TIME  TEMP    WIND        PRES    VSBY  WAVE
                       AIR SEA DIR/SP/G                  HT/PER
                 (UTC) (F)     (DEG/KT/KT) (MB)    (MI)  (FT/S)
POINT ARGUELLO B NOT AVBL
WEST SANTA BARBA 1550   61 57  320/ 14/ 16 1019.9R         5/14
POINT CONCEPTION NOT AVBL
EAST SANTA BARBA 1500   58 57  180/  2/  4 1020.6R
SANTA MONICA BAY 1550   63 59   90/  2/  2 1020.4R         2/14



USA.gov is the U.S. government's official web portal to all federal, state and local government web resources and services.